Location: St. Louis
(38.6270°N, 90.1994°W)
Time: 17:30:52
(UTC-05:00)

ISS - Pass Details

Date: 27 January 2014
Orbit: 402 x 406 km, 51.6° (Epoch: 30 August)

Event Time Altitude Azimuth Distance (km) Brightness Sun altitude
Exits shadow 03:55:45 - 79° (ENE) 2,094 1.2 -38.1°
Enters shadow 04:54:00 -64° 297° (WNW) 11,911 4.1 -26.7°
Maximum altitude 05:28:55 78° 38° (NE) 438 -3.2 -19.9°
